Date String (YYYY-MM-DD hh:mm:ss) UTC,Instrument flags,Ambient pressure (hPa),Sample flow (lpm),Bypass flow (lpm),Sample temperature (°C),Ambient temperature (°C),ASC tube jacket temperature (°C),LED temperature (°C),Box temperature (°C),Sample RH (%),Span deviation,Mass concentration (μg/m³),Mass concentration (μg/m³),Mass concentration (μg/m³)
DateTimeUTC,F1_M11,P_M11,Q1_M11,Q2_M11,T1_M11,T2_M11,T3_M11,T4_M11,T5_M11,U1_M11,ZSPAN_M11,X2_M11,X0_M11,X1_M11
2022-02-12 10:00:00,,0834.7,4.99,0.00,22.1,22.0,00.0,31.0,23.8,07.2,0000.0,0002.49,0003.06,0002.29
2022-02-12 10:01:00,,0834.7,4.99,0.00,22.0,21.7,00.0,31.0,23.6,07.2,0000.0,0002.48,0003.08,0002.27
2022-02-12 10:02:00,,0834.7,5.01,0.00,22.0,21.4,00.0,31.0,23.5,07.2,0000.0,0002.45,0002.99,0002.25
2022-02-12 10:03:00,,0834.7,4.99,0.00,21.9,21.3,00.0,31.0,23.5,07.2,0000.0,0002.41,0002.89,0002.23
2022-02-12 10:04:00,,0834.7,5.01,0.00,21.8,21.1,00.0,31.0,23.3,07.2,0000.0,0002.38,0002.86,0002.21
2022-02-12 10:05:00,,0834.6,4.99,0.00,21.8,21.0,00.0,30.9,23.3,07.2,0000.0,0002.37,0002.88,0002.18
2022-02-12 10:06:00,,0834.7,5.00,0.00,21.7,21.0,00.0,30.9,23.2,07.2,0000.0,0002.34,0002.81,0002.18
2022-02-12 10:07:00,,0834.6,4.99,0.00,21.8,21.4,00.0,30.9,23.4,07.2,0000.0,0002.34,0002.80,0002.17
2022-02-12 10:08:00,,0834.7,5.01,0.00,21.9,22.2,00.0,31.0,23.7,07.2,0000.0,0002.31,0002.74,0002.16
2022-02-12 10:09:00,,0834.7,5.00,0.00,22.0,22.9,00.0,31.0,24.0,07.1,0000.0,0002.26,0002.67,0002.13
2022-02-12 10:10:00,,0834.7,5.00,0.00,22.2,23.0,00.0,31.0,24.1,07.1,0000.0,0002.25,0002.66,0002.12
2022-02-12 10:11:00,,0834.7,5.00,0.00,22.2,22.6,00.0,31.0,24.0,07.1,0000.0,0002.25,0002.66,0002.12
2022-02-12 10:12:00,,0834.7,5.00,0.00,22.1,22.3,00.0,31.0,23.9,07.3,0000.0,0002.22,0002.59,0002.10
2022-02-12 10:13:00,,0834.7,4.99,0.00,22.1,22.0,00.0,31.0,23.8,07.3,0000.0,0002.20,0002.55,0002.09
2022-02-12 10:14:00,,0834.7,5.01,0.00,22.0,21.7,00.0,31.0,23.6,07.5,0000.0,0002.19,0002.53,0002.08
2022-02-12 10:15:00,,0834.7,5.02,0.00,22.0,21.5,00.0,31.0,23.5,07.6,0000.0,0002.18,0002.52,0002.07
2022-02-12 10:16:00,,0834.7,5.00,0.00,21.9,21.3,00.0,31.0,23.5,07.5,0000.0,0002.17,0002.49,0002.05
2022-02-12 10:17:00,,0834.7,5.00,0.00,21.8,21.2,00.0,31.0,23.4,07.4,0000.0,0002.17,0002.54,0002.03
2022-02-12 10:18:00,,0834.7,5.01,0.00,21.8,21.0,00.0,30.9,23.3,07.3,0000.0,0002.18,0002.61,0002.02
2022-02-12 10:19:00,,0834.7,5.00,0.00,21.7,21.0,00.0,30.9,23.3,07.2,0000.0,0002.18,0002.63,0002.01
2022-02-12 10:20:00,,0834.7,5.01,0.00,21.8,21.5,00.0,30.9,23.4,07.2,0000.0,0002.19,0002.63,0002.02
2022-02-12 10:21:00,,0834.7,5.00,0.00,21.9,22.2,00.0,31.0,23.7,07.1,0000.0,0002.19,0002.64,0002.03
2022-02-12 10:22:00,,0834.7,4.99,0.00,22.1,22.9,00.0,31.0,24.0,07.0,0000.0,0002.18,0002.63,0002.02
2022-02-12 10:23:00,,0834.7,4.99,0.00,22.2,22.9,00.0,31.0,24.1,07.0,0000.0,0002.20,0002.67,0002.01
2022-02-12 10:24:00,,0834.7,5.00,0.00,22.2,22.5,00.0,31.0,24.0,07.0,0000.0,0002.21,0002.70,0002.01
2022-02-12 10:25:00,,0834.7,5.00,0.00,22.1,22.2,00.0,31.0,23.8,07.0,0000.0,0002.18,0002.63,0002.00
2022-02-12 10:26:00,,0834.7,5.00,0.00,22.0,21.9,00.0,31.0,23.7,07.0,0000.0,0002.17,0002.62,0001.99
2022-02-12 10:27:00,,0834.7,5.00,0.00,22.0,21.6,00.0,31.0,23.6,07.0,0000.0,0002.17,0002.64,0001.99
2022-02-12 10:28:00,,0834.7,5.01,0.00,21.9,21.4,00.0,31.0,23.5,07.1,0000.0,0002.13,0002.57,0001.98
2022-02-12 10:29:00,,0834.6,4.99,0.00,21.9,21.2,00.0,31.0,23.4,07.1,0000.0,0002.09,0002.43,0001.98
2022-02-12 10:30:00,,0834.6,4.99,0.00,21.8,21.1,00.0,31.0,23.3,07.1,0000.0,0002.08,0002.42,0001.97
2022-02-12 10:31:00,,0834.6,5.00,0.00,21.7,21.0,00.0,30.9,23.2,07.2,0000.0,0002.07,0002.43,0001.95
2022-02-12 10:32:00,,0834.5,5.01,0.00,21.8,21.4,00.0,30.9,23.3,07.1,0000.0,0002.07,0002.43,0001.94
2022-02-12 10:33:00,,0834.4,5.00,0.00,21.9,22.2,00.0,31.0,23.6,07.1,0000.0,0002.06,0002.42,0001.93
2022-02-12 10:34:00,,0834.4,5.00,0.00,22.1,22.9,00.0,31.0,24.0,07.0,0000.0,0002.04,0002.38,0001.94
2022-02-12 10:35:00,,0834.3,5.00,0.00,22.2,23.0,00.0,31.0,24.1,07.0,0000.0,0002.05,0002.38,0001.94
2022-02-12 10:36:00,,0834.4,5.00,0.00,22.2,22.7,00.0,31.1,24.0,07.1,0000.0,0002.03,0002.35,0001.93
2022-02-12 10:37:00,,0834.4,5.01,0.00,22.1,22.3,00.0,31.0,23.9,07.4,0000.0,0002.02,0002.34,0001.92
2022-02-12 10:38:00,,0834.4,4.99,0.00,22.1,22.0,00.0,31.0,23.8,07.5,0000.0,0002.01,0002.31,0001.90
2022-02-12 10:39:00,,0834.4,4.99,0.00,22.0,21.8,00.0,31.0,23.7,07.5,0000.0,0002.03,0002.33,0001.91
2022-02-12 10:40:00,,0834.4,5.01,0.00,22.0,21.6,00.0,31.0,23.6,07.3,0000.0,0002.08,0002.47,0001.92
2022-02-12 10:41:00,,0834.4,5.00,0.00,21.9,21.4,00.0,31.0,23.5,07.2,0000.0,0002.09,0002.49,0001.92
2022-02-12 10:42:00,,0834.3,4.99,0.00,21.9,21.2,00.0,31.0,23.4,07.1,0000.0,0002.10,0002.51,0001.92
2022-02-12 10:43:00,,0834.4,5.00,0.00,21.8,21.1,00.0,31.0,23.3,07.1,0000.0,0002.10,0002.53,0001.91
2022-02-12 10:44:00,,0834.4,5.01,0.00,21.7,21.0,00.0,30.9,23.2,07.1,0000.0,0002.10,0002.53,0001.90
2022-02-12 10:45:00,,0834.4,5.00,0.00,21.8,21.5,00.0,31.0,23.4,07.1,0000.0,0002.08,0002.60,0001.89
2022-02-12 10:46:00,,0834.4,5.00,0.00,21.9,22.2,00.0,31.0,23.7,07.1,0000.0,0002.06,0002.59,0001.88
2022-02-12 10:47:00,,0834.4,5.00,0.00,22.1,22.9,00.0,31.0,24.0,07.0,0000.0,0002.06,0002.61,0001.88
2022-02-12 10:48:00,,0834.4,4.99,0.00,22.2,22.9,00.0,31.0,24.1,06.9,0000.0,0002.07,0002.66,0001.88
2022-02-12 10:49:00,,0834.4,5.01,0.00,22.2,22.6,00.0,31.1,24.0,07.0,0000.0,0002.08,0002.65,0001.89
2022-02-12 10:50:00,,0834.3,5.00,0.00,22.1,22.2,00.0,31.0,23.9,07.1,0000.0,0002.07,0002.66,0001.89
2022-02-12 10:51:00,,0834.4,4.99,0.00,22.1,22.0,00.0,31.0,23.7,07.2,0000.0,0002.06,0002.65,0001.90
2022-02-12 10:52:00,,0834.4,5.00,0.00,22.0,21.7,00.0,31.0,23.6,07.2,0000.0,0002.08,0002.73,0001.90
2022-02-12 10:53:00,,0834.4,5.01,0.00,21.9,21.5,00.0,31.0,23.5,07.2,0000.0,0002.08,0002.70,0001.91
2022-02-12 10:54:00,,0834.3,4.99,0.00,21.9,21.3,00.0,31.0,23.5,07.2,0000.0,0002.07,0002.67,0001.93
2022-02-12 10:55:00,,0834.2,5.01,0.00,21.8,21.2,00.0,31.0,23.4,07.2,0000.0,0002.08,0002.69,0001.94
2022-02-12 10:56:00,,0834.2,4.98,0.00,21.8,21.0,00.0,30.9,23.3,07.4,0000.0,0002.09,0002.65,0001.95
2022-02-12 10:57:00,,0834.2,5.01,0.00,21.7,21.1,00.0,30.9,23.3,07.3,0000.0,0002.11,0002.70,0001.98
2022-02-12 10:58:00,,0834.2,5.00,0.00,21.8,21.7,00.0,30.9,23.5,07.2,0000.0,0002.12,0002.70,0001.99
2022-02-12 10:59:00,,0834.1,4.99,0.00,22.0,22.5,00.0,31.0,23.8,07.0,0000.0,0002.10,0002.65,0001.98
